Volver al catálogo

THORAD AGENA D DEB

ActivoSSO
NORAD 5690·DEBRIS·🇺🇸 United States

Lanzado Apr 8, 1970 desde Vandenberg Space Force Base

Loading…

Próximos Pases (próximas 24 horas)

TLE

ActualizadoSource: Space-Track

Época: Sep 14, 2026, 12:45 UTC

1  5690U 70025LV  26257.53187573  .00000037  00000-0  12839-3 0  9991
2  5690 100.1913 275.2004 0048535 218.6876 295.9083 13.51641499778450

Sigue THORAD AGENA D DEB en tiempo real con AllMySat

Download on the App Store